THY6QY LTCK-LTFM

Flight info

Callsign THY6QY
Flight time 1h 42m
Altitude 38000
Route BAYIR UT888 SIV UL615 ERSEN
Aircraft A20N/M-SDE2E3FGHIRWXY/LB1

Departure

Time 2026-05-07 13:13
Airport Muş Airport (LTCK)

Arrival

Time 2026-05-07 14:56
Airport İstanbul Airport (LTFM)
Time Latitude Longitude Altitude Speed Heading
2026-05-07 13:03 38.75861 41.64652 4174 ft 0 kts 71°
2026-05-07 13:09 38.75860 41.64653 4175 ft 0 kts 82°
2026-05-07 13:10 38.75858 41.64656 4175 ft 0 kts 144°
2026-05-07 13:10 38.75853 41.64653 4175 ft 1 kts 220°
2026-05-07 13:10 38.75843 41.64640 4175 ft 2 kts 226°
2026-05-07 13:11 38.75824 41.64613 4174 ft 5 kts 229°
2026-05-07 13:11 38.75796 41.64579 4174 ft 5 kts 223°
2026-05-07 13:11 38.75761 41.64547 4173 ft 6 kts 207°
2026-05-07 13:11 38.75710 41.64514 4171 ft 9 kts 207°
2026-05-07 13:12 38.75647 41.64476 4170 ft 10 kts 205°
2026-05-07 13:12 38.75577 41.64433 4168 ft 11 kts 207°
2026-05-07 13:12 38.75505 41.64385 4167 ft 11 kts 206°
2026-05-07 13:12 38.75438 41.64422 4168 ft 17 kts 125°
2026-05-07 13:13 38.75284 41.64805 4168 ft 81 kts 117°
2026-05-07 13:13 38.74930 41.65715 4167 ft 141 kts 116°
2026-05-07 13:13 38.74404 41.67062 4272 ft 180 kts 122°
2026-05-07 13:13 38.73809 41.68518 4925 ft 181 kts 120°
2026-05-07 13:14 38.73131 41.69838 5690 ft 174 kts 143°
2026-05-07 13:14 38.72024 41.70388 6324 ft 169 kts 180°
2026-05-07 13:14 38.70843 41.70106 6677 ft 178 kts 214°
2026-05-07 13:14 38.70066 41.68783 6972 ft 193 kts 245°
2026-05-07 13:15 38.69507 41.67070 7326 ft 210 kts 248°
2026-05-07 13:15 38.68908 41.65229 7596 ft 232 kts 246°
2026-05-07 13:15 38.68205 41.63213 7982 ft 251 kts 245°
2026-05-07 13:15 38.67428 41.61089 8400 ft 269 kts 245°
2026-05-07 13:16 38.66565 41.58789 8993 ft 279 kts 245°
2026-05-07 13:16 38.65698 41.56514 9729 ft 283 kts 245°
2026-05-07 13:16 38.64801 41.54175 10468 ft 286 kts 245°
2026-05-07 13:16 38.63895 41.51816 10902 ft 299 kts 245°
2026-05-07 13:17 38.62938 41.49331 11432 ft 308 kts 245°
2026-05-07 13:17 38.61988 41.46869 12093 ft 311 kts 245°
2026-05-07 13:17 38.61023 41.44371 12743 ft 313 kts 245°
2026-05-07 13:17 38.60129 41.41733 13355 ft 315 kts 257°
2026-05-07 13:18 38.59986 41.38861 13964 ft 316 kts 279°
2026-05-07 13:18 38.60592 41.36132 14603 ft 317 kts 290°
2026-05-07 13:18 38.61350 41.33453 15199 ft 320 kts 290°
2026-05-07 13:18 38.62113 41.30759 15783 ft 322 kts 289°
2026-05-07 13:19 38.62869 41.28061 16363 ft 324 kts 289°
2026-05-07 13:19 38.63624 41.25347 16931 ft 326 kts 289°
2026-05-07 13:19 38.64378 41.22617 17496 ft 328 kts 289°
2026-05-07 13:19 38.65132 41.19876 18052 ft 330 kts 289°
2026-05-07 13:20 38.65896 41.17097 18590 ft 333 kts 289°
2026-05-07 13:20 38.66660 41.14308 19128 ft 335 kts 289°
2026-05-07 13:20 38.67427 41.11507 19625 ft 338 kts 289°
2026-05-07 13:20 38.68202 41.08670 20123 ft 341 kts 289°
2026-05-07 13:21 38.68993 41.05769 20641 ft 343 kts 288°
2026-05-07 13:21 38.69775 41.02900 21130 ft 345 kts 288°
2026-05-07 13:21 38.70562 41.00005 21628 ft 347 kts 288°
2026-05-07 13:21 38.71270 40.97396 22066 ft 349 kts 288°
2026-05-07 13:22 38.72064 40.94461 22537 ft 351 kts 288°
2026-05-07 13:22 38.72865 40.91505 22988 ft 353 kts 288°
2026-05-07 13:22 38.73676 40.88509 23450 ft 355 kts 288°
2026-05-07 13:22 38.74480 40.85533 23897 ft 357 kts 288°
2026-05-07 13:23 38.75291 40.82536 24323 ft 358 kts 288°
2026-05-07 13:23 38.76102 40.79527 24724 ft 360 kts 288°
2026-05-07 13:23 38.76919 40.76505 25121 ft 362 kts 288°
2026-05-07 13:23 38.77737 40.73459 25485 ft 364 kts 287°
2026-05-07 13:24 38.78558 40.70402 25847 ft 366 kts 287°
2026-05-07 13:24 38.79385 40.67319 26215 ft 367 kts 287°
2026-05-07 13:24 38.80222 40.64195 26566 ft 369 kts 287°
2026-05-07 13:24 38.81053 40.61087 26903 ft 371 kts 287°
2026-05-07 13:25 38.81889 40.57959 27244 ft 373 kts 287°
2026-05-07 13:25 38.82720 40.54848 27580 ft 374 kts 287°
2026-05-07 13:25 38.83572 40.51656 27911 ft 376 kts 287°
2026-05-07 13:25 38.84405 40.48522 28223 ft 378 kts 287°
2026-05-07 13:26 38.85262 40.45305 28526 ft 379 kts 286°
2026-05-07 13:26 38.86109 40.42118 28856 ft 381 kts 286°
2026-05-07 13:26 38.86959 40.38909 29159 ft 382 kts 286°
2026-05-07 13:26 38.87815 40.35680 29432 ft 384 kts 286°
2026-05-07 13:27 38.88676 40.32425 29737 ft 386 kts 285°
2026-05-07 13:27 38.89537 40.29165 30021 ft 387 kts 285°
2026-05-07 13:27 38.90398 40.25906 30300 ft 389 kts 285°
2026-05-07 13:27 38.91263 40.22620 30533 ft 391 kts 285°
2026-05-07 13:28 38.92133 40.19318 30768 ft 393 kts 285°
2026-05-07 13:28 38.93005 40.15997 31027 ft 395 kts 285°
2026-05-07 13:28 38.93883 40.12651 31252 ft 397 kts 286°
2026-05-07 13:28 38.94764 40.09292 31484 ft 398 kts 286°
2026-05-07 13:29 38.95655 40.05891 31696 ft 400 kts 286°
2026-05-07 13:29 38.96538 40.02515 31854 ft 402 kts 286°
2026-05-07 13:29 38.97430 39.99099 32035 ft 403 kts 286°
2026-05-07 13:29 38.98318 39.95690 32202 ft 405 kts 286°
2026-05-07 13:30 38.99208 39.92271 32382 ft 407 kts 286°
2026-05-07 13:30 39.00102 39.88838 32587 ft 408 kts 286°
2026-05-07 13:30 39.00997 39.85393 32768 ft 409 kts 286°
2026-05-07 13:30 39.01893 39.81935 32939 ft 410 kts 286°
2026-05-07 13:31 39.02802 39.78427 33113 ft 412 kts 287°
2026-05-07 13:31 39.03700 39.74953 33327 ft 411 kts 287°
2026-05-07 13:31 39.04598 39.71482 33554 ft 410 kts 287°
2026-05-07 13:31 39.05492 39.68016 33790 ft 410 kts 287°
2026-05-07 13:32 39.06384 39.64554 34024 ft 409 kts 287°
2026-05-07 13:32 39.07274 39.61091 34261 ft 409 kts 287°
2026-05-07 13:32 39.08165 39.57624 34488 ft 409 kts 287°
2026-05-07 13:32 39.09052 39.54162 34703 ft 409 kts 287°
2026-05-07 13:33 39.09935 39.50707 34908 ft 409 kts 287°
2026-05-07 13:33 39.10828 39.47213 35115 ft 410 kts 287°
2026-05-07 13:33 39.11712 39.43745 35328 ft 409 kts 287°
2026-05-07 13:33 39.12595 39.40274 35537 ft 409 kts 287°
2026-05-07 13:34 39.13478 39.36806 35731 ft 409 kts 287°
2026-05-07 13:34 39.15335 39.29909 36108 ft 409 kts 288°
2026-05-07 13:34 39.16295 39.26481 36281 ft 409 kts 288°
2026-05-07 13:35 39.17266 39.23005 36424 ft 410 kts 288°
2026-05-07 13:35 39.18224 39.19561 36558 ft 412 kts 288°
2026-05-07 13:35 39.19185 39.16096 36696 ft 412 kts 288°
2026-05-07 13:35 39.20141 39.12632 36825 ft 413 kts 288°
2026-05-07 13:36 39.21099 39.09156 36933 ft 415 kts 288°
2026-05-07 13:36 39.22065 39.05645 37041 ft 416 kts 288°
2026-05-07 13:36 39.23029 39.02137 37155 ft 417 kts 288°
2026-05-07 13:36 39.23995 38.98611 37272 ft 418 kts 288°
2026-05-07 13:37 39.24960 38.95087 37394 ft 419 kts 288°
2026-05-07 13:37 39.25938 38.91506 37513 ft 419 kts 288°
2026-05-07 13:37 39.26901 38.87972 37621 ft 420 kts 288°
2026-05-07 13:38 39.28840 38.80853 37818 ft 422 kts 288°
2026-05-07 13:38 39.29807 38.77295 37926 ft 422 kts 289°
2026-05-07 13:38 39.30775 38.73728 38033 ft 423 kts 289°
2026-05-07 13:39 39.32712 38.66574 38144 ft 425 kts 289°
2026-05-07 13:39 39.34646 38.59410 38158 ft 425 kts 289°
2026-05-07 13:40 39.36577 38.52242 38160 ft 424 kts 289°
2026-05-07 13:40 39.38505 38.45056 38164 ft 424 kts 289°
2026-05-07 13:41 39.40431 38.37864 38171 ft 425 kts 289°
2026-05-07 13:41 39.42351 38.30669 38180 ft 425 kts 289°
2026-05-07 13:42 39.44277 38.23434 38185 ft 425 kts 289°
2026-05-07 13:42 39.46186 38.16240 38189 ft 425 kts 289°
2026-05-07 13:43 39.48090 38.09048 38192 ft 425 kts 289°
2026-05-07 13:43 39.49997 38.01824 38198 ft 425 kts 289°
2026-05-07 13:44 39.51908 37.94560 38198 ft 425 kts 289°
2026-05-07 13:44 39.53799 37.87358 38200 ft 425 kts 289°
2026-05-07 13:45 39.55690 37.80125 38200 ft 425 kts 289°
2026-05-07 13:45 39.57576 37.72894 38199 ft 424 kts 289°
2026-05-07 13:46 39.59459 37.65655 38196 ft 425 kts 289°
2026-05-07 13:46 39.61333 37.58428 38198 ft 425 kts 289°
2026-05-07 13:47 39.63205 37.51184 38195 ft 425 kts 289°
2026-05-07 13:47 39.65075 37.43933 38195 ft 424 kts 289°
2026-05-07 13:48 39.66940 37.36669 38196 ft 424 kts 289°
2026-05-07 13:48 39.68798 37.29416 38191 ft 425 kts 289°
2026-05-07 13:49 39.70644 37.22191 38196 ft 424 kts 289°
2026-05-07 13:49 39.72493 37.14933 38191 ft 424 kts 289°
2026-05-07 13:50 39.74326 37.07710 38189 ft 424 kts 289°
2026-05-07 13:50 39.76163 37.00442 38186 ft 425 kts 289°
2026-05-07 13:51 39.77996 36.93148 38187 ft 425 kts 288°
2026-05-07 13:51 39.79449 36.85707 38194 ft 426 kts 282°
2026-05-07 13:52 39.80498 36.78149 38188 ft 426 kts 282°
2026-05-07 13:52 39.81521 36.70585 38202 ft 426 kts 282°
2026-05-07 13:53 39.82536 36.63066 38186 ft 425 kts 282°
2026-05-07 13:53 39.83550 36.55497 38192 ft 425 kts 282°
2026-05-07 13:54 39.84555 36.47977 38183 ft 425 kts 282°
2026-05-07 13:54 39.85560 36.40406 38176 ft 426 kts 282°
2026-05-07 13:55 39.86595 36.32805 38167 ft 426 kts 283°
2026-05-07 13:55 39.87702 36.25309 38168 ft 426 kts 282°
2026-05-07 13:56 39.88713 36.17736 38162 ft 425 kts 282°
2026-05-07 13:56 39.89704 36.10175 38161 ft 424 kts 282°
2026-05-07 13:57 39.90688 36.02662 38169 ft 425 kts 282°
2026-05-07 13:57 39.91674 35.95104 38158 ft 425 kts 282°
2026-05-07 13:58 39.92664 35.87511 38164 ft 425 kts 282°
2026-05-07 13:58 39.93642 35.79969 38165 ft 425 kts 282°
2026-05-07 13:59 39.94618 35.72388 38175 ft 424 kts 282°
2026-05-07 13:59 39.95588 35.64820 38155 ft 424 kts 282°
2026-05-07 14:00 39.96545 35.57298 38167 ft 423 kts 282°
2026-05-07 14:00 39.97498 35.49747 38159 ft 422 kts 282°
2026-05-07 14:01 39.98441 35.42244 38158 ft 423 kts 282°
2026-05-07 14:01 39.99386 35.34674 38159 ft 422 kts 282°
2026-05-07 14:02 40.00290 35.27142 38123 ft 423 kts 282°
2026-05-07 14:02 40.01187 35.19585 38158 ft 423 kts 282°
2026-05-07 14:03 40.02082 35.11998 38169 ft 422 kts 282°
2026-05-07 14:03 40.02962 35.04500 38169 ft 421 kts 282°
2026-05-07 14:04 40.03838 34.96988 38178 ft 421 kts 282°
2026-05-07 14:04 40.04710 34.89462 38165 ft 421 kts 282°
2026-05-07 14:05 40.05580 34.81903 38164 ft 420 kts 282°
2026-05-07 14:05 40.06439 34.74421 38163 ft 421 kts 282°
2026-05-07 14:06 40.07302 34.66860 38170 ft 421 kts 282°
2026-05-07 14:06 40.08154 34.59330 38165 ft 421 kts 282°
2026-05-07 14:07 40.09004 34.51774 38166 ft 420 kts 282°
2026-05-07 14:07 40.09842 34.44286 38159 ft 420 kts 282°
2026-05-07 14:08 40.10682 34.36722 38151 ft 420 kts 282°
2026-05-07 14:08 40.11515 34.29189 38171 ft 420 kts 282°
2026-05-07 14:09 40.12339 34.21682 38161 ft 420 kts 282°
2026-05-07 14:09 40.13165 34.14112 38149 ft 420 kts 282°
2026-05-07 14:10 40.13982 34.06570 38160 ft 420 kts 282°
2026-05-07 14:10 40.14788 33.99083 38166 ft 419 kts 282°
2026-05-07 14:11 40.15713 33.91593 38153 ft 418 kts 284°
2026-05-07 14:11 40.16742 33.84134 38153 ft 417 kts 283°
2026-05-07 14:12 40.17558 33.76667 38150 ft 418 kts 282°
2026-05-07 14:12 40.18336 33.69122 38159 ft 418 kts 282°
2026-05-07 14:13 40.19102 33.61627 38150 ft 418 kts 282°
2026-05-07 14:13 40.19867 33.54103 38156 ft 417 kts 282°
2026-05-07 14:14 40.20622 33.46624 38163 ft 417 kts 282°
2026-05-07 14:14 40.21371 33.39158 38163 ft 416 kts 282°
2026-05-07 14:15 40.22116 33.31674 38162 ft 415 kts 281°
2026-05-07 14:15 40.22857 33.24186 38171 ft 416 kts 281°
2026-05-07 14:16 40.23598 33.16701 38183 ft 415 kts 282°
2026-05-07 14:16 40.24699 33.09362 38168 ft 411 kts 288°
2026-05-07 14:17 40.26349 33.02274 38175 ft 409 kts 292°
2026-05-07 14:17 40.28172 32.95244 38171 ft 408 kts 292°
2026-05-07 14:18 40.30040 32.88233 38172 ft 408 kts 293°
2026-05-07 14:18 40.31913 32.81265 38161 ft 408 kts 292°
2026-05-07 14:19 40.33791 32.74226 38160 ft 409 kts 292°
2026-05-07 14:19 40.35645 32.67238 38167 ft 409 kts 292°
2026-05-07 14:20 40.37508 32.60186 38165 ft 408 kts 292°
2026-05-07 14:20 40.39349 32.53197 38153 ft 408 kts 292°
2026-05-07 14:21 40.41193 32.46169 38163 ft 408 kts 291°
2026-05-07 14:21 40.42494 32.38946 38162 ft 410 kts 285°
2026-05-07 14:22 40.43637 32.31619 38156 ft 411 kts 285°
2026-05-07 14:22 40.44791 32.24259 38155 ft 411 kts 285°
2026-05-07 14:23 40.45937 32.16982 38165 ft 410 kts 285°
2026-05-07 14:23 40.47088 32.09664 38157 ft 410 kts 285°
2026-05-07 14:24 40.48231 32.02364 38156 ft 410 kts 285°
2026-05-07 14:24 40.48808 31.98675 38027 ft 411 kts 285°
2026-05-07 14:24 40.49381 31.94992 37741 ft 408 kts 285°
2026-05-07 14:24 40.49936 31.91409 37442 ft 404 kts 285°
2026-05-07 14:25 40.50494 31.87801 37153 ft 401 kts 286°
2026-05-07 14:25 40.51049 31.84217 36856 ft 398 kts 286°
2026-05-07 14:25 40.51600 31.80656 36566 ft 398 kts 286°
2026-05-07 14:25 40.52151 31.77093 36293 ft 398 kts 286°
2026-05-07 14:26 40.52696 31.73558 36078 ft 398 kts 286°
2026-05-07 14:26 40.53239 31.70023 35859 ft 398 kts 286°
2026-05-07 14:26 40.53785 31.66457 35639 ft 398 kts 286°
2026-05-07 14:26 40.54340 31.62839 35415 ft 407 kts 286°
2026-05-07 14:27 40.54895 31.59217 35192 ft 408 kts 286°
2026-05-07 14:27 40.55447 31.55588 34969 ft 409 kts 286°
2026-05-07 14:27 40.56004 31.51917 34741 ft 410 kts 286°
2026-05-07 14:27 40.56559 31.48260 34516 ft 410 kts 287°
2026-05-07 14:28 40.57111 31.44609 34249 ft 410 kts 287°
2026-05-07 14:28 40.57672 31.40901 33973 ft 411 kts 286°
2026-05-07 14:28 40.58221 31.37253 33701 ft 411 kts 286°
2026-05-07 14:28 40.58778 31.33544 33428 ft 411 kts 286°
2026-05-07 14:29 40.59330 31.29856 33155 ft 413 kts 286°
2026-05-07 14:29 40.59877 31.26195 32883 ft 413 kts 286°
2026-05-07 14:29 40.60435 31.22456 32609 ft 414 kts 286°
2026-05-07 14:29 40.60987 31.18757 32337 ft 414 kts 285°
2026-05-07 14:30 40.61538 31.15049 32065 ft 416 kts 286°
2026-05-07 14:30 40.62089 31.11325 31793 ft 416 kts 285°
2026-05-07 14:30 40.62639 31.07607 31523 ft 417 kts 285°
2026-05-07 14:30 40.63190 31.03873 31250 ft 417 kts 286°
2026-05-07 14:31 40.63742 31.00123 30978 ft 418 kts 286°
2026-05-07 14:31 40.64292 30.96373 30704 ft 420 kts 286°
2026-05-07 14:31 40.64848 30.92573 30426 ft 421 kts 285°
2026-05-07 14:31 40.65398 30.88813 30152 ft 421 kts 285°
2026-05-07 14:32 40.65947 30.85038 29881 ft 422 kts 286°
2026-05-07 14:32 40.66497 30.81253 29609 ft 423 kts 286°
2026-05-07 14:32 40.67049 30.77459 29340 ft 424 kts 285°
2026-05-07 14:32 40.67600 30.73658 29064 ft 424 kts 285°
2026-05-07 14:33 40.68152 30.69840 28794 ft 425 kts 285°
2026-05-07 14:33 40.68700 30.66024 28494 ft 427 kts 285°
2026-05-07 14:33 40.69250 30.62196 28154 ft 427 kts 285°
2026-05-07 14:33 40.69804 30.58325 27693 ft 430 kts 285°
2026-05-07 14:34 40.70353 30.54486 27137 ft 432 kts 285°
2026-05-07 14:34 40.70906 30.50612 26580 ft 433 kts 285°
2026-05-07 14:34 40.71459 30.46726 26052 ft 435 kts 285°
2026-05-07 14:34 40.72015 30.42807 25563 ft 437 kts 285°
2026-05-07 14:35 40.72568 30.38891 25126 ft 438 kts 285°
2026-05-07 14:35 40.73122 30.34963 24705 ft 438 kts 284°
2026-05-07 14:35 40.73679 30.31002 24048 ft 436 kts 284°
2026-05-07 14:35 40.74227 30.27095 23271 ft 441 kts 284°
2026-05-07 14:36 40.74785 30.23131 22634 ft 444 kts 284°
2026-05-07 14:36 40.75335 30.19180 22082 ft 435 kts 284°
2026-05-07 14:36 40.75871 30.15319 21526 ft 426 kts 284°
2026-05-07 14:36 40.76397 30.11514 21010 ft 418 kts 284°
2026-05-07 14:37 40.76913 30.07786 20386 ft 413 kts 283°
2026-05-07 14:37 40.77931 30.00422 18976 ft 409 kts 283°
2026-05-07 14:37 40.78438 29.96737 18278 ft 407 kts 283°
2026-05-07 14:38 40.78945 29.93043 17574 ft 406 kts 283°
2026-05-07 14:38 40.79443 29.89410 16871 ft 404 kts 283°
2026-05-07 14:38 40.79937 29.85801 16198 ft 402 kts 283°
2026-05-07 14:38 40.80426 29.82217 15576 ft 399 kts 282°
2026-05-07 14:39 40.80911 29.78656 14959 ft 396 kts 282°
2026-05-07 14:39 40.81393 29.75089 14328 ft 392 kts 282°
2026-05-07 14:39 40.81865 29.71589 13730 ft 389 kts 282°
2026-05-07 14:39 40.82338 29.68084 13110 ft 387 kts 282°
2026-05-07 14:40 40.82806 29.64602 12551 ft 383 kts 282°
2026-05-07 14:40 40.83260 29.61207 12099 ft 376 kts 282°
2026-05-07 14:40 40.83708 29.57853 11679 ft 368 kts 282°
2026-05-07 14:40 40.84132 29.54667 11500 ft 340 kts 282°
2026-05-07 14:41 40.84524 29.51704 11355 ft 310 kts 282°
2026-05-07 14:41 40.84843 29.49294 11255 ft 286 kts 282°
2026-05-07 14:41 40.85177 29.46766 11091 ft 273 kts 282°
2026-05-07 14:41 40.85509 29.44264 10751 ft 269 kts 282°
2026-05-07 14:42 40.85840 29.41772 10398 ft 266 kts 282°
2026-05-07 14:42 40.86160 29.39355 10049 ft 265 kts 282°
2026-05-07 14:42 40.86482 29.36929 9708 ft 263 kts 282°
2026-05-07 14:42 40.86800 29.34521 9383 ft 262 kts 281°
2026-05-07 14:43 40.87114 29.32137 9074 ft 260 kts 281°
2026-05-07 14:43 40.87426 29.29761 8822 ft 260 kts 281°
2026-05-07 14:43 40.87738 29.27384 8549 ft 259 kts 281°
2026-05-07 14:43 40.88055 29.24965 8278 ft 257 kts 281°
2026-05-07 14:44 40.88361 29.22619 8007 ft 256 kts 281°
2026-05-07 14:44 40.88671 29.20246 7733 ft 255 kts 281°
2026-05-07 14:44 40.88977 29.17889 7454 ft 254 kts 281°
2026-05-07 14:44 40.89272 29.15618 7190 ft 252 kts 281°
2026-05-07 14:45 40.89574 29.13286 6919 ft 251 kts 281°
2026-05-07 14:45 40.89866 29.11028 6628 ft 250 kts 280°
2026-05-07 14:45 40.90162 29.08743 6338 ft 249 kts 280°
2026-05-07 14:45 40.90458 29.06457 6108 ft 247 kts 280°
2026-05-07 14:46 40.90750 29.04189 5888 ft 247 kts 280°
2026-05-07 14:46 40.91049 29.01861 5660 ft 247 kts 280°
2026-05-07 14:46 40.91292 28.99604 5438 ft 244 kts 277°
2026-05-07 14:46 40.91490 28.97353 5218 ft 240 kts 277°
2026-05-07 14:47 40.91682 28.95125 4995 ft 238 kts 277°
2026-05-07 14:47 40.91873 28.92918 4774 ft 237 kts 277°
2026-05-07 14:47 40.92067 28.90689 4549 ft 237 kts 277°
2026-05-07 14:47 40.92256 28.88514 4333 ft 235 kts 277°
2026-05-07 14:48 40.92443 28.86352 4093 ft 235 kts 277°
2026-05-07 14:48 40.92633 28.84161 3844 ft 234 kts 277°
2026-05-07 14:48 40.92823 28.81977 3593 ft 233 kts 277°
2026-05-07 14:48 40.93174 28.79890 3332 ft 233 kts 298°
2026-05-07 14:49 40.94315 28.78418 3097 ft 235 kts 328°
2026-05-07 14:49 40.95786 28.77370 2998 ft 235 kts 329°
2026-05-07 14:49 40.97226 28.76418 2985 ft 238 kts 341°
2026-05-07 14:49 40.98887 28.76093 2990 ft 239 kts 355°
2026-05-07 14:50 41.00515 28.76071 2983 ft 227 kts 358°
2026-05-07 14:50 41.02043 28.76093 2979 ft 214 kts 358°
2026-05-07 14:50 41.03508 28.76100 2975 ft 203 kts 356°
2026-05-07 14:50 41.04922 28.76088 2983 ft 199 kts 356°
2026-05-07 14:51 41.06325 28.76065 2988 ft 198 kts 355°
2026-05-07 14:51 41.07728 28.76037 2990 ft 198 kts 355°
2026-05-07 14:51 41.09116 28.76008 2991 ft 198 kts 355°
2026-05-07 14:51 41.10488 28.75980 2980 ft 191 kts 355°
2026-05-07 14:52 41.11832 28.75955 2954 ft 183 kts 355°
2026-05-07 14:52 41.13088 28.75930 2901 ft 176 kts 355°
2026-05-07 14:52 41.14284 28.75907 2640 ft 168 kts 355°
2026-05-07 14:52 41.15418 28.75884 2397 ft 161 kts 355°
2026-05-07 14:53 41.16421 28.75864 2217 ft 151 kts 356°
2026-05-07 14:53 41.17483 28.75843 1983 ft 140 kts 356°
2026-05-07 14:53 41.18456 28.75823 1796 ft 137 kts 357°
2026-05-07 14:53 41.19413 28.75802 1628 ft 137 kts 358°
2026-05-07 14:54 41.20382 28.75802 1378 ft 137 kts
2026-05-07 14:54 41.21336 28.75794 1080 ft 135 kts 359°
2026-05-07 14:54 41.22289 28.75761 879 ft 135 kts
2026-05-07 14:54 41.23234 28.75765 720 ft 135 kts
2026-05-07 14:55 41.24169 28.75744 621 ft 134 kts
2026-05-07 14:55 41.25128 28.75704 505 ft 134 kts
2026-05-07 14:55 41.26076 28.75675 371 ft 133 kts
2026-05-07 14:55 41.26964 28.75667 333 ft 106 kts 360°
2026-05-07 14:56 41.27486 28.75645 333 ft 32 kts 358°
2026-05-07 14:56 41.27605 28.75594 333 ft 15 kts 294°
2026-05-07 14:56 41.27610 28.75450 333 ft 15 kts 266°
2026-05-07 14:56 41.27544 28.75361 333 ft 15 kts 184°
2026-05-07 14:57 41.27437 28.75365 333 ft 15 kts 180°
2026-05-07 14:57 41.27327 28.75364 333 ft 16 kts 175°
2026-05-07 14:57 41.27222 28.75367 333 ft 14 kts 184°
2026-05-07 14:57 41.27118 28.75367 333 ft 15 kts 179°
2026-05-07 14:58 41.27010 28.75370 333 ft 15 kts 180°
2026-05-07 14:58 41.26896 28.75373 333 ft 16 kts 178°
2026-05-07 14:58 41.26781 28.75367 333 ft 16 kts 182°
2026-05-07 14:58 41.26667 28.75373 333 ft 16 kts 192°
2026-05-07 14:59 41.26612 28.75268 333 ft 16 kts 268°
2026-05-07 14:59 41.26598 28.75159 333 ft 8 kts 242°
2026-05-07 14:59 41.26567 28.75111 333 ft 6 kts 227°
2026-05-07 14:59 41.26563 28.75077 333 ft 4 kts 269°
2026-05-07 15:00 41.26569 28.75033 333 ft 5 kts 303°
2026-05-07 15:00 41.26582 28.74993 333 ft 2 kts 287°
2026-05-07 15:00 41.26585 28.74982 333 ft 0 kts 287°